Retour au catalogue

STARLINK-4470

ActifCommunicationsSSO
NORAD 53655·PAYLOAD·🇺🇸 United States

Lancé Aug 31, 2022 depuis Vandenberg Space Force Base

Loading…

Prochains Passages (prochaines 24 heures)

TLE

FraisSource: CelesTrak SupGP

Époque: Sep 15, 2026, 02:44 UTC

1 53655C 22105H   26258.11437500  .00055430  00000+0  15379-2 0  2589
2 53655  97.5004 146.4495 0001825  97.0807 201.9664 15.36941999    16

Suivez STARLINK-4470 en temps réel avec AllMySat

Download on the App Store